TimeEST,TemperatureF,Dew PointF,Humidity,Sea Level PressureIn,VisibilityMPH,Wind Direction,Wind SpeedMPH,Gust SpeedMPH,PrecipitationIn,Events,Conditions,WindDirDegrees,DateUTC
12:53 AM,21.0,15.1,78,30.48,10.0,NNW,5.8,-,N/A,,Mostly Cloudy,330,2013-12-07 05:53:00
1:53 AM,18.0,12.0,78,30.50,10.0,NNW,6.9,-,N/A,,Clear,340,2013-12-07 06:53:00
2:53 AM,16.0,9.0,74,30.52,10.0,North,9.2,-,N/A,,Clear,350,2013-12-07 07:53:00
3:53 AM,12.9,7.0,77,30.54,10.0,NNW,3.5,-,N/A,,Clear,340,2013-12-07 08:53:00
4:53 AM,12.0,6.1,77,30.54,10.0,North,5.8,-,N/A,,Clear,350,2013-12-07 09:53:00
5:53 AM,9.0,3.9,80,30.56,10.0,North,4.6,-,N/A,,Clear,350,2013-12-07 10:53:00
6:53 AM,6.1,1.9,83,30.58,10.0,North,6.9,-,N/A,,Clear,360,2013-12-07 11:53:00
7:53 AM,7.0,3.0,84,30.62,9.0,North,5.8,-,N/A,,Clear,360,2013-12-07 12:53:00
8:53 AM,8.1,5.0,87,30.63,8.0,North,4.6,-,N/A,,Clear,350,2013-12-07 13:53:00
9:53 AM,10.9,5.0,77,30.65,10.0,North,9.2,-,N/A,,Clear,360,2013-12-07 14:53:00
10:53 AM,15.1,8.1,74,30.66,10.0,North,8.1,-,N/A,,Clear,360,2013-12-07 15:53:00
11:53 AM,19.0,10.9,71,30.65,10.0,North,6.9,-,N/A,,Clear,350,2013-12-07 16:53:00
12:53 PM,19.9,10.9,68,30.63,10.0,North,9.2,-,N/A,,Clear,360,2013-12-07 17:53:00
1:53 PM,23.0,10.9,60,30.61,10.0,North,9.2,-,N/A,,Clear,360,2013-12-07 18:53:00
2:53 PM,24.1,12.0,60,30.59,10.0,North,6.9,-,N/A,,Clear,350,2013-12-07 19:53:00
3:53 PM,23.0,10.9,60,30.60,10.0,North,5.8,-,N/A,,Clear,350,2013-12-07 20:53:00
4:53 PM,19.9,9.0,62,30.60,10.0,North,5.8,-,N/A,,Clear,360,2013-12-07 21:53:00
5:53 PM,17.1,9.0,71,30.61,10.0,North,4.6,-,N/A,,Clear,350,2013-12-07 22:53:00
6:53 PM,14.0,9.0,80,30.62,10.0,North,5.8,-,N/A,,Clear,10,2013-12-07 23:53:00
7:53 PM,15.1,8.1,74,30.62,10.0,NNE,4.6,-,N/A,,Clear,20,2013-12-08 00:53:00
8:53 PM,9.0,6.1,88,30.61,10.0,North,3.5,-,N/A,,Clear,10,2013-12-08 01:53:00
9:53 PM,18.0,10.9,74,30.55,10.0,NE,8.1,-,N/A,,Clear,50,2013-12-08 02:53:00
10:53 PM,19.0,10.9,71,30.54,10.0,East,8.1,-,N/A,,Clear,90,2013-12-08 03:53:00
11:53 PM,19.0,12.0,74,30.53,10.0,East,4.6,-,N/A,,Clear,100,2013-12-08 04:53:00